User: anonymous   Login
Location: Unspecified
(0.0000°N, 0.0000°E)
Time: 21:43:59
(UTC+01:00)
Language:

Centaur D-1AR AC-41 - Orbit

View from above orbital plane
View from above orbital plane
View from above satellite
View from above satellite

Ground track
Ground track

The orbit data is extracted from the following two-line orbital elements,

1 10976U 78068B   17056.50744550 -.00000006  00000-0 -51851-3 0  9992
2 10976  21.4633 242.1321 7173499 188.5920  30.5961  2.22307283313765
Epoch (UTC): 25 February 2017 12:10:43
Eccentricity: 0.7173499
inclination: 21.4633°
perigee height: 631 km
apogee height: 36210 km
right ascension of ascending node: 242.1321°
argument of perigee: 188.5920°
revolutions per day: 2.22307283
mean anomaly at epoch: 30.5961°
orbit number at epoch: 31376

The dashed part of the orbit path shows where the satellite is in the earth's shadow,  

DLR